Skip Navigation Links
NOAA logo - Click to go to the NOAA homepage
NOAA's National Weather Service
Alaska Aviation Weather Unit
  NWS logo - Click to go to the NWS homepage
Left Navbar Graphic     09 AKDT = 17 GMT

   
NOAA is celebrating 200 years of science, service, and stewardship. Visit the NOAA 200th celebration Web site to learn more.
USA.gov is the U.S. Government's official Web portal to all Federal, state and local government Web resources and services.
Facebook
NWS on Facebook

Important Change Regarding the AAWU Web Presence

 

Over the last several months, the AAWU has been working to navigate its webpages to a nationally supported server. Security, as well as other needs, have necessitated the change.  In the process, we have made an effort to enhance the functionality of our website, as well as some of our products. As of June 20, 2017, aawu.arh.noaa.gov will be discontinued. The new AAWU web address is weather.gov/aawu. It is now live and will run in-parallel with the old site until it is discontinued. Please send any feedback or questions regarding the new webpages to nws.ar.aawu.webauthors@noaa.gov.  Thank you for your patience during this time of transition.
AAWU Home :: Display TAF Add Bookmark
TAF CYWJ 271410Z 2714/2723 29012KT P6SM FEW004 FEW090
    FM271800 30012G22KT P6SM FEW040 SCT060
    RMK NXT FCST BY 271800Z=

METAR CYWJ 271300Z 27010KT 50SM FEW004 FEW080 05/01 A3002 RMK ST1AC1 HZ 11.1/2.2/0 SLP178= METAR CYWJ 271400Z 28013KT 50SM FEW004 FEW090 07/01 A3003 RMK ST1AC1 HZ SLP180= METAR CYWJ 271500Z 29015G23KT 50SM FEW005 FEW090 09/00 A3004 RMK SF1AC1 HZ SLP184= METAR CYWJ 271600Z 29015G21KT 50SM FEW100 10/01 A3005 RMK AC1 HZ SLP189= METAR CYWJ 271700Z 30016G22KT 50SM SCT045 11/01 A3005 RMK CU4 HZ SLP190=
 Alaska TAF Map

NOAA's National Weather Service
Alaska Aviation Weather Unit
6930 Sand Lake Road
Anchorage, AK 99502-1845
Disclaimer
Credits
Glossary
Privacy Policy
About Us
Career Opportunities
Contact AAWU Internet Services Site last modified: April, 17th 2012